Change the Weather History Date:

Saturday, April 26, 2014

  Actual Average Record
Temperature  
Mean Temperature 64 °F -  
Max Temperature 80 °F 71 °F 92 °F (1989)
Min Temperature 48 °F 47 °F 29 °F (1950)
Degree Days  
Heating Degree Days 1    
Growing Degree Days 14 (Base 50)    
Moisture  
Dew Point 48 °F    
Average Humidity 53    
Maximum Humidity 82    
Minimum Humidity 32    
Precipitation  
Precipitation 0.00 in - - ()
Sea Level Pressure  
Sea Level Pressure 29.68 in    
Wind  
Wind Speed 10 mph (SE)    
Max Wind Speed 33 mph    
Max Gust Speed 48 mph    
Visibility 10 miles    
Events      
Averages and records for this station are not official NWS values.
T = Trace of Precipitation, MM = Missing Value Source: NWS Daily Summary

Daily Weather History Graph

Daily Weather History Graph

Search for Another Location

Airport or City:

Trip Planner

Search our weather history database for the weather conditions in past years. The results will help you decide how hot, cold, wet, or windy it might be!

Date:

Astronomy

Apr. 26, 2014 Rise Set
Actual Time 6:26 AM CDT 8:12 PM CDT
Civil Twilight 5:57 AM CDT 8:42 PM CDT
Nautical Twilight 5:22 AM CDT 9:17 PM CDT
Astronomical Twilight 4:44 AM CDT 9:55 PM CDT
Moon 4:52 AM CDT (4/26) 5:41 PM CDT (4/26)
Length of Visible Light 14h 44m
Length of Day
13h 45m
Waning Crescent, 8% of the Moon is Illuminated
Apr 26
Waning Crescent
Apr 29
New
May 6
First Quarter
May 14
Full
May 21
Last Quarter

Hourly Weather History & Observations

Time (CDT) Temp. Heat Index Dew Point Humidity Pressure Visibility Wind Dir Wind Speed Gust Speed Precip Events Conditions
12:15 AM 59.0 °F - 46.4 °F 63% 29.79 in 10.0 mi South 3.5 mph - N/A   Clear
12:35 AM 59.0 °F - 46.4 °F 63% 29.79 in 10.0 mi Calm Calm - N/A   Clear
12:55 AM 57.2 °F - 44.6 °F 63% 29.79 in 10.0 mi Calm Calm - N/A   Clear
1:15 AM 59.0 °F - 44.6 °F 59% 29.79 in 10.0 mi Calm Calm - N/A   Clear
1:35 AM 59.0 °F - 44.6 °F 59% 29.78 in 10.0 mi Calm Calm - N/A   Clear
1:55 AM 59.0 °F - 44.6 °F 59% 29.78 in 10.0 mi Variable 3.5 mph - N/A   Clear
2:15 AM 59.0 °F - 44.6 °F 59% 29.77 in 10.0 mi SE 3.5 mph - N/A   Clear
2:35 AM 53.6 °F - 44.6 °F 72% 29.77 in 10.0 mi Calm Calm - N/A   Clear
2:55 AM 53.6 °F - 44.6 °F 72% 29.77 in 10.0 mi Calm Calm - N/A   Clear
3:15 AM 53.6 °F - 44.6 °F 72% 29.77 in 10.0 mi Calm Calm - N/A   Clear
3:35 AM 55.4 °F - 44.6 °F 67% 29.76 in 10.0 mi Calm Calm - N/A   Clear
3:55 AM 55.4 °F - 44.6 °F 67% 29.76 in 10.0 mi Calm Calm - N/A   Clear
4:15 AM 57.2 °F - 42.8 °F 59% 29.76 in 10.0 mi SSE 3.5 mph - N/A   Clear
4:35 AM 51.8 °F - 42.8 °F 71% 29.77 in 10.0 mi Calm Calm - N/A   Clear
4:55 AM 55.4 °F - 42.8 °F 63% 29.77 in 10.0 mi SE 4.6 mph - N/A   Clear
5:15 AM 51.8 °F - 44.6 °F 76% 29.76 in 10.0 mi SE 6.9 mph - N/A   Clear
5:35 AM 51.8 °F - 42.8 °F 71% 29.77 in 10.0 mi East 4.6 mph - N/A   Clear
5:55 AM 48.2 °F - 42.8 °F 82% 29.77 in 10.0 mi NE 4.6 mph - N/A   Clear
6:15 AM 48.2 °F - 42.8 °F 82% 29.76 in 10.0 mi ENE 4.6 mph - N/A   Clear
6:35 AM 51.8 °F - 42.8 °F 71% 29.76 in 10.0 mi ESE 6.9 mph - N/A   Clear
6:55 AM 53.6 °F - 44.6 °F 72% 29.76 in 10.0 mi ESE 4.6 mph - N/A   Clear
7:15 AM 53.6 °F - 46.4 °F 77% 29.76 in 10.0 mi ESE 5.8 mph - N/A   Clear
7:35 AM 55.4 °F - 46.4 °F 72% 29.76 in 10.0 mi ESE 5.8 mph - N/A   Clear
7:55 AM 59.0 °F - 46.4 °F 63% 29.76 in 10.0 mi East 6.9 mph - N/A   Clear
8:15 AM 59.0 °F - 46.4 °F 63% 29.76 in 10.0 mi East 5.8 mph - N/A   Clear
8:35 AM 60.8 °F - 46.4 °F 59% 29.76 in 10.0 mi ESE 8.1 mph - N/A   Clear
8:55 AM 62.6 °F - 46.4 °F 55% 29.75 in 10.0 mi East 9.2 mph - N/A   Clear
9:15 AM 64.4 °F - 46.4 °F 52% 29.75 in 10.0 mi ESE 9.2 mph - N/A   Clear
9:35 AM 66.2 °F - 46.4 °F 49% 29.75 in 10.0 mi SE 16.1 mph - N/A   Clear
9:55 AM 68.0 °F - 44.6 °F 43% 29.74 in 10.0 mi SE 11.5 mph - N/A   Clear
10:15 AM 69.8 °F - 44.6 °F 40% 29.73 in 10.0 mi SSE 15.0 mph - N/A   Clear
10:35 AM 71.6 °F - 46.4 °F 41% 29.73 in 10.0 mi SSE 15.0 mph - N/A   Clear
10:55 AM 73.4 °F - 46.4 °F 38% 29.72 in 10.0 mi SSE 17.3 mph 23.0 mph N/A   Clear
11:15 AM 73.4 °F - 46.4 °F 38% 29.71 in 10.0 mi South 17.3 mph 24.2 mph N/A   Clear
11:35 AM 75.2 °F - 46.4 °F 36% 29.70 in 10.0 mi SSE 21.9 mph 29.9 mph N/A   Clear
11:55 AM 77.0 °F - 48.2 °F 36% 29.70 in 7.0 mi South 18.4 mph 27.6 mph N/A   Clear
12:15 PM 77.0 °F - 50.0 °F 39% 29.68 in 10.0 mi South 25.3 mph 32.2 mph N/A   Clear
12:35 PM 78.8 °F - 51.8 °F 39% 29.67 in 9.0 mi South 24.2 mph 34.5 mph N/A   Clear
12:55 PM 78.8 °F - 53.6 °F 42% 29.66 in 7.0 mi South 27.6 mph 34.5 mph N/A   Scattered Clouds
1:15 PM 78.8 °F - 51.8 °F 39% 29.65 in 10.0 mi South 26.5 mph 41.4 mph N/A   Overcast
1:35 PM 78.8 °F - 48.2 °F 34% 29.64 in 10.0 mi South 33.4 mph 48.3 mph N/A   Overcast
1:55 PM 80.6 °F - 50.0 °F 34% 29.64 in 10.0 mi SE 24.2 mph 33.4 mph N/A   Mostly Cloudy
2:15 PM 78.8 °F - 50.0 °F 36% 29.64 in 10.0 mi SSE 26.5 mph 36.8 mph N/A   Partly Cloudy
2:35 PM 78.8 °F - 50.0 °F 36% 29.63 in 10.0 mi SE 24.2 mph 39.1 mph N/A   Clear
2:55 PM 80.6 °F - 50.0 °F 34% 29.63 in 10.0 mi SE 24.2 mph 35.7 mph N/A   Clear
3:15 PM 78.8 °F - 50.0 °F 36% 29.62 in 10.0 mi SE 23.0 mph 31.1 mph N/A   Clear
3:35 PM 80.6 °F - 51.8 °F 37% 29.61 in 10.0 mi SE 23.0 mph 33.4 mph N/A   Clear
3:55 PM 78.8 °F - 51.8 °F 39% 29.59 in 10.0 mi ESE 24.2 mph 31.1 mph N/A   Clear
4:15 PM 78.8 °F - 51.8 °F 39% 29.59 in 10.0 mi SE 20.7 mph 28.8 mph N/A   Clear
4:35 PM 80.6 °F 80.3 °F 53.6 °F 39% 29.58 in 10.0 mi SE 24.2 mph 31.1 mph N/A   Partly Cloudy
4:55 PM 80.6 °F - 48.2 °F 32% 29.58 in 10.0 mi SSE 29.9 mph 36.8 mph N/A   Mostly Cloudy
5:15 PM 80.6 °F - 48.2 °F 32% 29.57 in 10.0 mi SSE 24.2 mph 40.3 mph N/A   Scattered Clouds
5:35 PM 80.6 °F - 50.0 °F 34% 29.57 in 10.0 mi SSE 25.3 mph 35.7 mph N/A   Clear
5:55 PM 78.8 °F - 50.0 °F 36% 29.56 in 10.0 mi SE 26.5 mph 38.0 mph N/A   Scattered Clouds
6:15 PM 77.0 °F - 50.0 °F 39% 29.58 in 10.0 mi SSE 23.0 mph 33.4 mph N/A   Mostly Cloudy
6:35 PM 77.0 °F - 50.0 °F 39% 29.57 in 10.0 mi SSE 21.9 mph 32.2 mph N/A   Overcast
6:55 PM 75.2 °F - 50.0 °F 41% 29.57 in 10.0 mi SE 19.6 mph 27.6 mph N/A   Overcast
7:15 PM 75.2 °F - 50.0 °F 41% 29.57 in 10.0 mi SSE 20.7 mph 29.9 mph N/A   Overcast
7:55 PM 71.6 °F - 53.6 °F 53% 29.58 in 10.0 mi ESE 18.4 mph - N/A   Overcast
8:15 PM 69.8 °F - 53.6 °F 56% 29.57 in 10.0 mi ESE 18.4 mph 26.5 mph N/A   Scattered Clouds
8:35 PM 69.8 °F - 53.6 °F 56% 29.57 in 10.0 mi ESE 18.4 mph 27.6 mph N/A   Scattered Clouds
8:55 PM 68.0 °F - 51.8 °F 56% 29.57 in 10.0 mi ESE 20.7 mph 27.6 mph N/A   Partly Cloudy
9:15 PM 68.0 °F - 51.8 °F 56% 29.57 in 10.0 mi ESE 18.4 mph 26.5 mph N/A   Clear
9:35 PM 66.2 °F - 51.8 °F 60% 29.58 in 10.0 mi ESE 13.8 mph 23.0 mph N/A   Clear
9:55 PM 66.2 °F - 51.8 °F 60% 29.58 in 10.0 mi ESE 17.3 mph - N/A   Clear
10:15 PM 64.4 °F - 51.8 °F 64% 29.58 in 10.0 mi ESE 16.1 mph 23.0 mph N/A   Clear
10:35 PM 64.4 °F - 51.8 °F 64% 29.57 in 10.0 mi ESE 16.1 mph 23.0 mph N/A   Clear
10:55 PM 64.4 °F - 51.8 °F 64% 29.57 in 10.0 mi ESE 15.0 mph - N/A   Partly Cloudy
11:15 PM 64.4 °F - 51.8 °F 64% 29.56 in 10.0 mi ESE 13.8 mph 20.7 mph N/A   Clear
11:35 PM 66.2 °F - 51.8 °F 60% 29.56 in 10.0 mi SE 17.3 mph 25.3 mph N/A   Clear
11:55 PM 68.0 °F - 51.8 °F 56% 29.55 in 10.0 mi ESE 21.9 mph - N/A   Clear